Starlink 30338

operational
NORAD ID: 57718 Int'l Des: 2023-129 Owner: SPXS Country: US Constellation: starlink
LEOCIRCULAR

About Starlink 30338

Description loading...

Live Position

Loading 3D Globe...

Upcoming Passes

Altitude History

Altitude vs Time

uPlot chart will show altitude changes over time

Two-Line Element Set

1 57718U 23129W 26020.27625147 .00000251 00000-0 33693-4 0 9995
2 57718 43.0038 23.1964 0001588 262.2560 97.8102 15.02538203133371
Epoch: Jan 20, 2026 • Age: 13 hours

Current Status

Altitude 568.3 km
Velocity 7.58 km/s
Sub-Earth Point -35.14°S, 75.54°W
Launch Date Aug 27, 2023
Age 2.4 years
Type internet

Technical Details

Classification Payload
Mass 730.00 kg
Dry Mass 700.00 kg
Total Mass 730.00 kg
Length 0.30 m
Diameter 4.10 m
Span 29.00 m
Shape Box + pan
Manufacturer SPXS
Bus Type Starlink V2M
Phase Status In Orbit
Owner/State SPXS/US

Large Constellations

Loading constellations...